FW6531 Weather Reports


time (UTC)temp
C
wind
direction
speed
KPH
gust
KPH
rain 1hr
cm
rain 24hr
cm
rain mn
cm
humidity
%
barometer
mb
20260505012015 10 186 8.0 16.1 0.00 0.00 0.00 78 1006.2
20260505011512 9 165 8.0 16.1 0.00 0.00 0.00 79 1006.0
20260505011011 9 188 8.0 16.1 0.00 0.00 0.00 81 1006.0
20260505010510 8 180 6.4 17.7 0.00 0.00 0.00 81 1006.0
20260505010011 8 244 3.2 14.5 0.00 0.00 0.00 81 1005.9
20260505005509 8 253 3.2 12.9 0.00 0.00 0.00 81 1005.9
20260505005010 8 200 3.2 12.9 0.00 0.00 0.00 80 1005.7
20260505004510 8 196 3.2 6.4 0.00 0.00 0.00 80 1005.8
20260505004014 8 199 0.0 3.2 0.00 0.00 0.00 80 1005.8
20260505003513 8 199 0.0 4.8 0.00 0.00 0.00 80 1005.7
20260505003010 8 198 1.6 4.8 0.00 0.00 0.00 80 1005.6
20260505002513 8 199 0.0 3.2 0.00 0.00 0.00 80 1005.5
20260505002007 9 199 0.0 3.2 0.00 0.00 0.00 80 1005.2
20260505001507 9 199 0.0 9.7 0.00 0.00 0.00 79 1005.3
20260505001009 9 199 1.6 9.7 0.00 0.00 0.00 79 1005.2
20260505000505 9 167 1.6 8.0 0.00 0.00 0.00 79 1005.3
20260505000011 9 171 1.6 8.0 0.00 0.00 0.00 79 1005.2
20260504235504 9 171 1.6 6.4 0.00 0.00 0.00 79 1005.2
20260504235004 9 173 3.2 8.0 0.00 0.00 0.00 78 1005.2
20260504234504 10 157 4.8 12.9 0.00 0.00 0.00 78 1005.4
20260504234002 10 139 4.8 12.9 0.00 0.00 0.00 77 1005.2
20260504233503 10 138 4.8 8.0 0.00 0.00 0.00 77 1005.2
20260504233001 10 134 4.8 8.0 0.00 0.00 0.00 76 1005.1
20260504232601 10 128 4.8 8.0 0.00 0.00 0.00 75 1005.0
20260504232059 10 140 4.8 11.3 0.00 0.00 0.00 74 1004.9
20260504231605 11 134 6.4 11.3 0.00 0.00 0.00 73 1004.8
20260504231059 11 128 4.8 8.0 0.00 0.00 0.00 73 1004.7
20260504230602 11 126 4.8 11.3 0.00 0.00 0.00 72 1004.6
20260504230100 11 135 6.4 11.3 0.00 0.00 0.00 71 1004.6
20260504225558 11 142 4.8 8.0 0.00 0.00 0.00 70 1004.6
20260504225102 12 135 4.8 8.0 0.00 0.00 0.00 69 1004.6
20260504224600 12 135 4.8 8.0 0.00 0.00 0.00 67 1004.6
20260504224102 12 135 3.2 8.0 0.00 0.00 0.00 66 1004.5
20260504223557 12 136 3.2 8.0 0.00 0.00 0.00 66 1004.4
20260504223159 12 131 6.4 8.0 0.00 0.00 0.00 67 1004.4
20260504222559 12 117 3.2 8.0 0.00 0.00 0.00 66 1004.4
20260504222057 13 136 3.2 8.0 0.00 0.00 0.00 65 1004.3
20260504221605 13 135 3.2 12.9 0.00 0.00 0.00 65 1004.4
20260504221057 13 130 4.8 12.9 0.00 0.00 0.00 64 1004.3
20260504220556 13 175 3.2 11.3 0.00 0.00 0.00 64 1004.4
20260504220056 13 141 3.2 14.5 0.00 0.00 0.00 62 1004.4
20260504215556 14 147 4.8 14.5 0.00 0.00 0.00 60 1004.4
20260504215055 15 158 3.2 12.9 0.00 0.00 0.00 58 1004.5
20260504214555 15 153 3.2 12.9 0.00 0.00 0.00 57 1004.5
20260504214054 16 122 4.8 12.9 0.00 0.00 0.00 53 1004.5
20260504213555 17 107 6.4 11.3 0.00 0.00 0.00 51 1004.4
20260504213055 17 142 4.8 11.3 0.00 0.00 0.00 47 1004.4
20260504212554 17 141 3.2 11.3 0.00 0.00 0.00 47 1004.4
20260504212055 17 126 3.2 12.9 0.00 0.00 0.00 47 1004.4
20260504211554 17 101 1.6 9.7 0.00 0.00 0.00 50 1004.3
20260504211054 17 111 0.0 6.4 0.00 0.00 0.00 48 1004.2
20260504210554 17 103 1.6 8.0 0.00 0.00 0.00 48 1004.3
20260504210108 17 134 3.2 12.9 0.00 0.00 0.00 49 1004.3
20260504205553 17 107 8.0 16.1 0.00 0.00 0.00 47 1004.4
20260504205052 18 121 4.8 16.1 0.00 0.00 0.00 46 1004.4
20260504204601 18 113 11.3 16.1 0.00 0.00 0.00 44 1004.3
20260504204053 19 111 8.0 16.1 0.00 0.00 0.00 43 1004.3
20260504203553 20 91 3.2 20.9 0.00 0.00 0.00 38 1004.2
20260504203051 20 313 6.4 20.9 0.00 0.00 0.00 39 1004.2
20260504202552 20 271 6.4 19.3 0.00 0.00 0.00 38 1004.2
20260504202053 20 267 8.0 19.3 0.00 0.00 0.00 38 1004.2
20260504201552 19 272 9.7 20.9 0.00 0.00 0.00 38 1004.2
20260504201050 19 315 6.4 20.9 0.00 0.00 0.00 37 1004.2
20260504200549 19 244 6.4 19.3 0.00 0.00 0.00 38 1004.4
20260504200050 20 252 6.4 17.7 0.00 0.00 0.00 38 1004.4
20260504195548 20 263 8.0 20.9 0.00 0.00 0.00 38 1004.2
20260504195047 20 273 8.0 22.5 0.00 0.00 0.00 39 1004.3
20260504194602 19 258 4.8 14.5 0.00 0.00 0.00 40 1004.2
20260504194045 19 332 4.8 9.7 0.00 0.00 0.00 39 1004.3
20260504193544 18 272 3.2 9.7 0.00 0.00 0.00 41 1004.3
20260504193042 18 316 4.8 9.7 0.00 0.00 0.00 40 1004.3
20260504192541 18 290 1.6 14.5 0.00 0.00 0.00 42 1004.4
20260504192041 18 294 8.0 14.5 0.00 0.00 0.00 43 1004.5
20260504191546 18 259 3.2 9.7 0.00 0.00 0.00 41 1004.6
20260504191039 17 314 3.2 9.7 0.00 0.00 0.00 42 1004.7
20260504190538 17 331 3.2 14.5 0.00 0.00 0.00 44 1004.7
20260504190045 17 321 3.2 14.5 0.00 0.00 0.00 42 1004.8
20260504185536 17 267 4.8 14.5 0.00 0.00 0.00 42 1004.8
20260504185036 17 342 1.6 11.3 0.00 0.00 0.00 43 1004.8
20260504184540 17 264 4.8 11.3 0.00 0.00 0.00 41 1004.9
20260504184036 17 338 4.8 16.1 0.00 0.00 0.00 41 1004.8
20260504183535 17 288 4.8 16.1 0.00 0.00 0.00 42 1004.8
20260504183035 17 306 3.2 16.1 0.00 0.00 0.00 40 1004.7
20260504182534 17 294 4.8 16.1 0.00 0.00 0.00 41 1004.7
20260504182035 17 263 4.8 14.5 0.00 0.00 0.00 40 1004.7
20260504181542 17 267 6.4 12.9 0.00 0.00 0.00 40 1004.8
20260504181033 17 278 4.8 22.5 0.00 0.00 0.00 40 1004.7
20260504180531 17 22 8.0 20.9 0.00 0.00 0.00 40 1004.7
20260504180045 16 260 6.4 20.9 0.00 0.00 0.00 44 1004.7
20260504175529 16 271 4.8 16.1 0.00 0.00 0.00 45 1004.6
20260504175031 15 270 3.2 16.1 0.00 0.00 0.00 52 1004.6
20260504174529 15 246 4.8 12.9 0.00 0.00 0.00 53 1004.5
20260504174028 15 265 3.2 6.4 0.00 0.00 0.00 51 1004.7
20260504173527 15 169 3.2 11.3 0.00 0.00 0.00 55 1004.6
20260504173028 16 209 1.6 19.3 0.00 0.00 0.00 55 1004.6
20260504172526 16 185 6.4 22.5 0.00 0.00 0.00 53 1004.5
20260504172027 16 180 6.4 17.7 0.00 0.00 0.00 56 1004.6
20260504171528 16 134 4.8 16.1 0.00 0.00 0.00 53 1004.5
20260504171027 16 189 6.4 22.5 0.00 0.00 0.00 55 1004.5
20260504170526 15 154 8.0 22.5 0.00 0.00 0.00 52 1004.4
20260504151009 16 167 4.8 17.7 0.00 0.00 0.00 52 1005.7
20260504150508 16 174 6.4 16.1 0.00 0.00 0.00 53 1005.7
20260504141054 13 236 8.0 20.9 0.00 0.00 0.00 56 1006.8
20260504140553 12 213 8.0 20.9 0.00 0.00 0.00 56 1006.8
20260504130545 11 243 8.0 19.3 0.00 0.00 0.00 59 1007.4
20260504110525 6 245 0.0 6.4 0.00 0.00 0.00 67 1007.8
20260504100508 6 252 3.2 6.4 0.00 0.00 0.00 65 1007.6
20260504081549 5 269 4.8 9.7 0.00 0.00 0.00 67 1007.5
20260504081048 5 250 4.8 9.7 0.00 0.00 0.00 67 1007.5
20260504080546 5 229 3.2 8.0 0.00 0.00 0.00 67 1007.6
20260504050525 4 263 3.2 12.9 0.00 0.00 0.00 70 1007.1
20260504050024 4 278 1.6 8.0 0.00 0.00 0.00 71 1007.1
20260504045522 5 206 1.6 8.0 0.00 0.00 0.00 71 1007.0
20260504045021 5 193 3.2 6.4 0.00 0.00 0.00 70 1007.2
20260504044519 5 219 3.2 8.0 0.00 0.00 0.00 70 1007.1
20260504044020 5 215 3.2 9.7 0.00 0.00 0.00 70 1007.1
20260504043519 5 204 4.8 9.7 0.00 0.00 0.00 71 1007.1
20260504043016 4 196 4.8 9.7 0.00 0.00 0.00 71 1007.1
20260504042514 4 239 4.8 9.7 0.00 0.00 0.00 72 1007.1
20260504042013 4 242 3.2 8.0 0.00 0.00 0.00 73 1007.0
20260504041513 3 214 3.2 8.0 0.00 0.00 0.00 73 1007.1
20260504041012 3 215 3.2 6.4 0.00 0.00 0.00 73 1007.2
20260504040511 4 213 3.2 9.7 0.00 0.00 0.00 72 1007.2
20260504040010 4 204 3.2 9.7 0.00 0.00 0.00 71 1007.1
20260504035510 4 252 3.2 6.4 0.00 0.00 0.00 70 1007.0
20260504035008 5 253 1.6 4.8 0.00 0.00 0.00 70 1007.0
20260504034508 5 253 3.2 6.4 0.00 0.00 0.00 69 1007.0
20260504034006 5 254 1.6 6.4 0.00 0.00 0.00 69 1007.0
20260504033507 5 254 3.2 6.4 0.00 0.00 0.00 68 1007.0
20260504033004 5 254 3.2 4.8 0.00 0.00 0.00 67 1006.9
20260504032506 5 255 3.2 6.4 0.00 0.00 0.00 67 1006.9
20260504032004 5 256 3.2 6.4 0.00 0.00 0.00 66 1006.9
20260504031503 6 216 3.2 8.0 0.00 0.00 0.00 65 1006.9
20260504031002 6 211 3.2 8.0 0.00 0.00 0.00 65 1007.0
20260504030502 6 207 1.6 9.7 0.00 0.00 0.00 64 1007.0
20260504030003 6 202 3.2 9.7 0.00 0.00 0.00 63 1006.9
20260504025502 6 264 3.2 11.3 0.00 0.00 0.00 62 1006.9
20260504025002 6 267 3.2 9.7 0.00 0.00 0.00 60 1006.9
20260504024502 7 267 1.6 9.7 0.00 0.00 0.00 60 1006.9
20260504024001 7 267 3.2 9.7 0.00 0.00 0.00 59 1006.9
20260504023501 7 265 3.2 9.7 0.00 0.00 0.00 59 1006.9
20260504023001 7 267 3.2 9.7 0.00 0.00 0.00 59 1007.0
20260504022601 7 269 1.6 9.7 0.00 0.00 0.00 59 1007.0
20260504022000 7 279 3.2 12.9 0.00 0.00 0.00 58 1007.0
20260504021612 7 290 3.2 12.9 0.00 0.00 0.00 58 1007.1
20260504021103 7 263 4.8 12.9 0.00 0.00 0.00 58 1007.0
20260504020601 7 265 6.4 12.9 0.00 0.00 0.00 58 1007.0
20260504020107 7 264 4.8 12.9 0.00 0.03 0.00 58 1006.9
20260504015600 7 265 3.2 11.3 0.00 0.03 0.00 58 1006.8
20260504015100 7 265 4.8 11.3 0.00 0.03 0.00 58 1006.9
20260504014600 7 235 4.8 12.9 0.00 0.03 0.00 57 1006.9
20260504014059 7 264 4.8 11.3 0.00 0.03 0.00 56 1006.9
20260504013559 7 275 3.2 11.3 0.00 0.03 0.00 55 1006.9
20260504013110 7 269 4.8 11.3 0.00 0.03 0.00 55 1006.8
20260504012559 7 259 3.2 11.3 0.00 0.03 0.00 55 1006.8